Погода в Самора-де-Идальго

Мексика     19°59′20″N   102°17′06″W
темп.,
°C
ветер,
м/с
пор.,
м/с
влажн.,
%
обл.,
%
осадки,
мм/ч
давл.,
гПа
погр.,
м
19 апреля, пн
пн1901:00+13ю22223 0.0 101523
04:00+11ю223533 0.0 101518
07:00+10ююв223811 0.0 101614
10:00+21сз1117100 0.0 1014476
13:00+29зюз4755 0.0 10102633
16:00+29юз6865 0.0 10072650
19:00+26юз5793 0.0 10081574
22:00+16ю34229 0.0 101384
20 апреля, вт
вт2001:00+13ю223142 0.0 101624
04:00+12ю113599 0.0 101614
07:00+10ююв11365 0.0 101612
10:00+22ссз11185 0.0 1015553
13:00+29зсз3574 0.0 10102683
16:00+30зюз6562 0.0 10082839
19:00+26юз4585 0.0 10091455
22:00+16ю331814 0.0 101447
21 апреля, ср
ср2101:00+13ю222374 0.0 101719
04:00+12ююв222725 0.0 101720
07:00+11ююв22265 0.0 101813
10:00+23ссв11131 0.0 1016548
13:00+30сз2480 0.0 10122684
16:00+31зюз6580 0.0 10083131
19:00+27юз56104 0.0 10091389
22:00+16ю33185 0.0 101452
22 апреля, чт
чт2201:00+13ю222080 0.0 101620
04:00+12ююв222556 0.0 101716
07:00+11ююв222895 0.0 101814
10:00+23ссз111590 0.0 1016533
13:00+30сз34941 0.0 10122470
16:00+32з558100 0.0 10073270
19:00+27зюз451096 0.0 10081297
22:00+18ю3418100 0.0 101361
23 апреля, пт
пт2301:00+14ююз22246 0.0 101619
04:00+12ююв22346 0.0 101719
07:00+11ююв223792 0.0 101716
10:00+23с111899 0.0 1015476
13:00+29сз3510100 0.0 10112650
16:00+31зюз6610100 0.0 10073229
19:00+27юз461238 0.0 10081373
22:00+17ю332474 0.0 101347